Weather History for Valdosta Regional, GA

Change the Weather History Date:

Monday, November 19, 2012

  Actual Average Record
Temperature  
Mean Temperature 59 °F 59 °F  
Max Temperature 69 °F 71 °F 80 °F (2011)
Min Temperature 49 °F 47 °F 27 °F (2008)
Degree Days  
Heating Degree Days 6 7  
Month to date heating degree days 93 97  
Since 1 July heating degree days 124 140  
Growing Degree Days 10 (Base 50)    
Moisture  
Dew Point 49 °F    
Average Humidity 67    
Maximum Humidity 80    
Minimum Humidity 53    
Precipitation  
Precipitation 0.00 in 0.08 in 0.81 in (1948)
Month to date precipitation 0.45 1.50  
Year to date precipitation 39.95 46.37  
Sea Level Pressure  
Sea Level Pressure 30.21 in    
Wind  
Wind Speed 7 mph (NNE)    
Max Wind Speed 15 mph    
Max Gust Speed 18 mph    
Visibility 10 miles    
Events      
T = Trace of Precipitation, MM = Missing Value Source: NWS Daily Summary

Daily Weather History Graph

Daily Weather History Graph

Search for Another Location

Airport:

Trip Planner

Search our weather history database for the weather conditions in past years. The results will help you decide how hot, cold, wet, or windy it might be!

Date:

Astronomy

Nov. 19, 2012 Rise Set
Actual Time 7:03 AM EST 5:33 PM EST
Civil Twilight 6:37 AM EST 5:59 PM EST
Nautical Twilight 6:08 AM EST 6:28 PM EST
Astronomical Twilight 5:39 AM EST 6:57 PM EST
Moon 12:14 PM EST (11/19) 11:48 PM EST (11/19)
Length of Visible Light 11h 21m
Length of Day
10h 30m
Waxing Crescent, 40% of the Moon is Illuminated
Nov 19
Waxing Crescent
Nov 20
First Quarter
Nov 28
Full
Dec 6
Last Quarter
Dec 13
New

Hourly Weather History & Observations

Time (EST) Temp. Dew Point Humidity Pressure Visibility Wind Dir Wind Speed Gust Speed Precip Events Conditions
12:53 AM 51.1 °F 45.0 °F 80% 30.26 in 10.0 mi Calm Calm - N/A   Clear
1:53 AM 50.0 °F 45.0 °F 83% 30.26 in 10.0 mi North 6.9 mph - N/A   Clear
2:53 AM 51.1 °F 45.0 °F 80% 30.25 in 10.0 mi North 8.1 mph - N/A   Clear
3:53 AM 51.1 °F 45.0 °F 80% 30.24 in 10.0 mi North 6.9 mph - N/A   Clear
4:53 AM 52.0 °F 45.0 °F 77% 30.24 in 10.0 mi North 8.1 mph - N/A   Clear
5:53 AM 52.0 °F 45.0 °F 77% 30.25 in 10.0 mi North 9.2 mph - N/A   Clear
6:53 AM 50.0 °F 44.1 °F 80% 30.26 in 10.0 mi North 5.8 mph - N/A   Clear
7:53 AM 53.1 °F 44.1 °F 71% 30.25 in 10.0 mi North 9.2 mph - N/A   Clear
8:53 AM 57.0 °F 46.0 °F 67% 30.27 in 10.0 mi North 10.4 mph - N/A   Clear
9:53 AM 61.0 °F 46.9 °F 60% 30.26 in 10.0 mi North 10.4 mph - N/A   Clear
10:53 AM 64.0 °F 48.9 °F 58% 30.25 in 10.0 mi North 8.1 mph - N/A   Scattered Clouds
11:53 AM 64.9 °F 50.0 °F 58% 30.23 in 10.0 mi North 8.1 mph - N/A   Partly Cloudy
12:53 PM 66.0 °F 50.0 °F 56% 30.20 in 10.0 mi NNE 5.8 mph - N/A   Partly Cloudy
1:53 PM 69.1 °F 51.1 °F 53% 30.18 in 10.0 mi NE 8.1 mph - N/A   Clear
2:53 PM 68.0 °F 51.1 °F 55% 30.17 in 10.0 mi NE 8.1 mph - N/A   Scattered Clouds
3:53 PM 68.0 °F 52.0 °F 56% 30.17 in 10.0 mi NNE 5.8 mph - N/A   Mostly Cloudy
4:53 PM 66.9 °F 52.0 °F 59% 30.16 in 10.0 mi NNE 10.4 mph - N/A   Overcast
5:01 PM 66.2 °F 51.8 °F 60% 30.14 in 10.0 mi NNE 9.2 mph - N/A   Overcast
5:53 PM 64.9 °F 52.0 °F 63% 30.17 in 10.0 mi North 4.6 mph - N/A   Overcast
6:53 PM 64.9 °F 53.1 °F 65% 30.17 in 10.0 mi NNE 4.6 mph - N/A   Mostly Cloudy
7:53 PM 64.9 °F 53.1 °F 65% 30.19 in 10.0 mi NNE 3.5 mph - N/A   Overcast
8:53 PM 64.0 °F 53.1 °F 67% 30.19 in 10.0 mi NE 6.9 mph - N/A   Overcast
9:36 PM 64.4 °F 53.6 °F 68% 30.16 in 10.0 mi NNE 4.6 mph - N/A   Overcast
9:53 PM 64.0 °F 53.1 °F 67% 30.18 in 10.0 mi NNE 4.6 mph - N/A   Overcast
10:53 PM 63.0 °F 53.1 °F 70% 30.17 in 10.0 mi North 3.5 mph - N/A   Overcast
11:53 PM 57.0 °F 50.0 °F 77% 30.17 in 10.0 mi Calm Calm - N/A   Clear